This is the latest recevied weather packets stored in our database for station/object WD4IXD-WX. If no packets are shown the sender has not sent any weather packets the latest 10 day(s).
| Time | Temp. | Humidity | Pressure | Rain* | Wind** | Luminosity | Snow |
|---|---|---|---|---|---|---|---|
| 1778092804 | -1.67° C | 81% | 1017.5 hPa | 0 mm | - | 668 W/m² | - |
| 1778092504 | -1.67° C | 80% | 1017.5 hPa | 0 mm | - | 740 W/m² | - |
| 1778092204 | -2.22° C | 82% | 1017.5 hPa | 0 mm | - | 817 W/m² | - |
| 1778091904 | -2.78° C | 83% | 1017.4 hPa | 0 mm | - | 1004 W/m² | - |
| 1778091604 | -3.33° C | 83% | 1017.4 hPa | 0 mm | - | 756 W/m² | - |
| 1778091304 | -3.33° C | 83% | 1017.5 hPa | 0.25 mm | - | 568 W/m² | - |
| 1778091004 | -3.33° C | 83% | 1017.5 hPa | 0.25 mm | - | 522 W/m² | - |
| 1778090703 | -3.33° C | 84% | 1017.4 hPa | 0.25 mm | - | 668 W/m² | - |
| 1778090404 | -3.89° C | 84% | 1017.3 hPa | 0.25 mm | - | 635 W/m² | - |
| 1778090104 | -3.89° C | 84% | 1017.3 hPa | 0.25 mm | - | 499 W/m² | - |
| 1778089804 | -3.89° C | 84% | 1017.2 hPa | 0.25 mm | - | 374 W/m² | - |
| 1778089504 | -3.89° C | 84% | 1017.1 hPa | 0.25 mm | - | 436 W/m² | - |
| 1778089204 | -3.89° C | 84% | 1017.3 hPa | 0.25 mm | - | 448 W/m² | - |
| 1778088904 | -3.89° C | 83% | 1017.2 hPa | 0.25 mm | - | 425 W/m² | - |
| 1778088604 | -3.89° C | 83% | 1017.1 hPa | 0.25 mm | - | 466 W/m² | - |
| 1778088304 | -3.89° C | 84% | 1017 hPa | 0.25 mm | - | 506 W/m² | - |
| 1778088004 | -3.89° C | 83% | 1017 hPa | 0.25 mm | - | 529 W/m² | - |
| 1778087704 | -3.89° C | 82% | 1017 hPa | 0 mm | - | 573 W/m² | - |
| 1778087403 | -3.89° C | 83% | 1016.9 hPa | 0 mm | - | 510 W/m² | - |
| 1778087104 | -3.89° C | 84% | 1016.9 hPa | 0 mm | - | 513 W/m² | - |
| 1778086803 | -3.89° C | 84% | 1016.8 hPa | 0 mm | - | 582 W/m² | - |
| 1778086504 | -4.44° C | 83% | 1016.7 hPa | 0 mm | - | 592 W/m² | - |
| 1778086204 | -3.89° C | 83% | 1016.8 hPa | 0 mm | - | 462 W/m² | - |
| 1778085904 | -3.89° C | 83% | 1016.7 hPa | 0 mm | - | 439 W/m² | - |
| 1778085604 | -3.33° C | 83% | 1016.7 hPa | 0 mm | - | 404 W/m² | - |
* Rain latest hour (hover to see other rain measurements)
** Current wind speed in m/s (hover to see current wind gust speed)